| time (UTC) | temp F | wind direction | speed MPH | gust MPH | rain 1hr in | rain 24hr in | rain mn in | humidity % | barometer mb |
| 20260504044554 | 54 | 35 | 12.0 | 24.0 | 0.00 | 0.00 | 0.00 | 38 | 1011.6 |
| 20260504043047 | 55 | 25 | 8.0 | 17.0 | 0.00 | 0.00 | 0.00 | 42 | 1010.9 |
| 20260504041543 | 54 | 22 | 1.0 | 6.0 | 0.00 | 0.00 | 0.00 | 42 | 1010.4 |
| 20260504040054 | 55 | 347 | 0.0 | 3.0 | 0.00 | 0.00 | 0.00 | 40 | 1010.0 |
| 20260504034550 | 56 | 2 | 0.0 | 3.0 | 0.00 | 0.00 | 0.00 | 39 | 1009.8 |
| 20260504033035 | 57 | 353 | 1.0 | 9.0 | 0.00 | 0.00 | 0.00 | 37 | 1009.5 |
| 20260504031533 | 58 | 45 | 2.0 | 12.0 | 0.00 | 0.00 | 0.00 | 36 | 1009.4 |
| 20260504030130 | 59 | 24 | 1.0 | 11.0 | 0.00 | 0.00 | 0.00 | 36 | 1009.1 |
| 20260504024526 | 60 | 32 | 3.0 | 10.0 | 0.00 | 0.00 | 0.00 | 33 | 1009.0 |
| 20260504023025 | 62 | 21 | 1.0 | 8.0 | 0.00 | 0.00 | 0.00 | 30 | 1009.0 |
| 20260504021523 | 64 | 2 | 1.0 | 9.0 | 0.00 | 0.00 | 0.00 | 26 | 1008.9 |
| 20260504020018 | 67 | 11 | 0.0 | 6.0 | 0.00 | 0.00 | 0.00 | 22 | 1008.8 |
| 20260504014514 | 69 | 338 | 0.0 | 7.0 | 0.00 | 0.00 | 0.00 | 20 | 1008.9 |
| 20260504013013 | 70 | 328 | 1.0 | 10.0 | 0.00 | 0.00 | 0.00 | 19 | 1008.9 |
| 20260504011510 | 71 | 328 | 0.0 | 9.0 | 0.00 | 0.00 | 0.00 | 18 | 1008.9 |
| 20260504010038 | 72 | 342 | 1.0 | 12.0 | 0.00 | 0.00 | 0.00 | 18 | 1009.1 |
| 20260504004536 | 72 | 342 | 6.0 | 15.0 | 0.00 | 0.00 | 0.00 | 18 | 1009.0 |
| 20260504003034 | 72 | 315 | 3.0 | 13.0 | 0.00 | 0.00 | 0.00 | 18 | 1009.1 |
| 20260504001528 | 73 | 315 | 5.0 | 17.0 | 0.00 | 0.00 | 0.00 | 18 | 1009.3 |
| 20260504000025 | 72 | 310 | 2.0 | 13.0 | 0.00 | 0.00 | 0.00 | 18 | 1009.4 |
| 20260503234523 | 73 | 316 | 2.0 | 16.0 | 0.00 | 0.00 | 0.00 | 18 | 1009.6 |
| 20260503233049 | 73 | 321 | 7.0 | 16.0 | 0.00 | 0.00 | 0.00 | 18 | 1009.7 |
| 20260503231552 | 74 | 304 | 3.0 | 17.0 | 0.00 | 0.00 | 0.00 | 19 | 1009.8 |
| 20260503230043 | 73 | 302 | 7.0 | 19.0 | 0.00 | 0.00 | 0.00 | 18 | 1009.8 |
| 20260503224541 | 74 | 15 | 3.0 | 15.0 | 0.00 | 0.00 | 0.00 | 18 | 1009.8 |
| 20260503223038 | 74 | 301 | 2.0 | 15.0 | 0.00 | 0.00 | 0.00 | 19 | 1009.9 |
| 20260503221542 | 73 | 286 | 3.0 | 15.0 | 0.00 | 0.00 | 0.00 | 20 | 1010.1 |
| 20260503220032 | 73 | 305 | 0.0 | 15.0 | 0.00 | 0.00 | 0.00 | 19 | 1010.2 |
| 20260503214531 | 73 | 319 | 0.0 | 13.0 | 0.00 | 0.00 | 0.00 | 20 | 1010.3 |
| 20260503213034 | 73 | 328 | 0.0 | 15.0 | 0.00 | 0.00 | 0.00 | 20 | 1010.4 |
| 20260503211532 | 73 | 319 | 0.0 | 14.0 | 0.00 | 0.00 | 0.00 | 19 | 1010.8 |
| 20260503210019 | 72 | 294 | 6.0 | 14.0 | 0.00 | 0.00 | 0.00 | 20 | 1011.1 |
| 20260503204516 | 73 | 319 | 3.0 | 14.0 | 0.00 | 0.00 | 0.00 | 20 | 1011.2 |
| 20260503201510 | 72 | 296 | 7.0 | 13.0 | 0.00 | 0.00 | 0.00 | 21 | 1011.3 |
| 20260503200004 | 72 | 302 | 6.0 | 15.0 | 0.00 | 0.00 | 0.00 | 19 | 1011.5 |
| 20260503194600 | 72 | 305 | 0.0 | 17.0 | 0.00 | 0.00 | 0.00 | 18 | 1011.7 |
| 20260503193109 | 71 | 326 | 7.0 | 14.0 | 0.00 | 0.00 | 0.00 | 19 | 1011.9 |
| 20260503191553 | 70 | 318 | 8.0 | 16.0 | 0.00 | 0.00 | 0.00 | 18 | 1012.2 |
| 20260503190059 | 71 | 295 | 0.0 | 15.0 | 0.00 | 0.00 | 0.00 | 18 | 1012.3 |
| 20260503184512 | 70 | 294 | 2.0 | 20.0 | 0.00 | 0.00 | 0.00 | 19 | 1012.4 |
| 20260503183014 | 70 | 266 | 3.0 | 15.0 | 0.00 | 0.00 | 0.00 | 20 | 1012.5 |
| 20260503181501 | 70 | 291 | 1.0 | 16.0 | 0.00 | 0.00 | 0.00 | 21 | 1012.6 |
| 20260503180100 | 70 | 269 | 5.0 | 17.0 | 0.00 | 0.00 | 0.00 | 19 | 1012.7 |
| 20260503174552 | 71 | 278 | 9.0 | 16.0 | 0.00 | 0.00 | 0.00 | 19 | 1012.9 |
| 20260503173108 | 70 | 288 | 1.0 | 14.0 | 0.00 | 0.00 | 0.00 | 22 | 1013.0 |
| 20260503171514 | 70 | 304 | 2.0 | 10.0 | 0.00 | 0.00 | 0.00 | 23 | 1013.0 |
| 20260503140113 | 54 | 290 | 0.0 | 4.0 | 0.00 | 0.00 | 0.00 | 59 | 1013.5 |
| 20260503081548 | 41 | 269 | 0.0 | 0.0 | 0.00 | 0.00 | 0.00 | 77 | 1015.4 |